Location: ???????
(55.2903°N, 39.1554°E)
Time: 00:13:23
(UTC+00:00)

Envisat - Visible Passes

Search period start: 19 May 2026 00:00
Search period end: 29 May 2026 00:00
Orbit: 761 x 762 km, 98.4° (Epoch: 18 May)

Date Brightness Start Highest point End Pass type
(mag) Time Alt. Az. Time Alt. Az. Time Alt. Az.
19 May 4.9 23:02:32 10° NE 23:06:34 23° E 23:10:34 10° SE visible
20 May 5.5 22:26:11 10° ENE 22:28:11 12° E 22:30:10 10° ESE visible
21 May 3.4 00:03:05 10° NNE 00:08:09 64° ESE 00:13:11 10° S visible
21 May 4.4 23:25:30 10° NNE 23:30:07 34° E 23:34:42 10° SSE visible
22 May 5.2 22:48:22 10° NE 22:51:52 18° E 22:55:20 10° SE visible
23 May 3.8 23:48:37 10° NNE 23:53:34 50° E 23:58:29 10° S visible
24 May 4.7 23:11:10 10° NE 23:15:27 27° E 23:19:43 10° SSE visible
25 May 5.4 22:34:24 10° NE 22:37:07 14° E 22:39:50 10° ESE visible
26 May 4.2 23:34:12 10° NNE 23:38:57 39° E 23:43:42 10° SSE visible
27 May 5.1 22:56:55 10° NE 23:00:46 21° E 23:04:35 10° SE visible
28 May 5.6 22:21:00 10° ENE 22:22:21 11° E 22:23:41 10° E visible
